Location: Feydey
(46.3431°N, 7.0106°E)
Time: 12:03:24
(UTC+00:00)

Cosmos 1328 - Pass Details

Date: 26 October 2021
Orbit: 529 x 551 km, 82.5° (Epoch: 26 November)

Event Time Altitude Azimuth Distance (km) Brightness Sun altitude
Rises 17:03:53 0° 352° (N) 2,737 7.3 -7.1°
Reaches altitude 10° 17:06:04 10° 355° (N) 1,839 6.4 -7.5°
Maximum altitude 17:10:06 72° 80° (E) 585 3.8 -8.2°
Drops below altitude 10° 17:14:07 10° 165° (SSE) 1,824 6.4 -8.8°
Sets 17:16:16 0° 168° (SSE) 2,712 7.3 -9.2°
